Home   Weather   Fort Lauderdale   Past weeks

Flag for USA Past Weather in Fort Lauderdale, Florida, USA — Yesterday and Last 2 Weeks

Now
78 °F

Passing clouds.


Feels Like: 81 °F
Forecast: 79 / 88 °F
Wind: 12 mph from Southeast

Location: Fort Lauderdale / Hollywood International Airport

Current Time: Apr 27, 2017 at 3:26:49 am

Latest Report: Apr 27, 2017 at 2:53 am


Visibility: 10 mi

Pressure: 29.89 "Hg

Humidity: 84%

Dew Point: 73 °F

Location of Fort LauderdaleLocation

Past Weather in Fort Lauderdale — Graph

°F

Fort Lauderdale Temperature Yesterday

Maximum temperature yesterday: 82 °F (at 1:53 pm)
Minimum temperature yesterday: 64 °F (at 6:53 am)
Average temperature yesterday: 75 °F

High & Low Weather Summary for the Past Weeks

 TemperatureHumidityPressure
High88 °F (Apr 24, 3:53 pm)100% (Apr 23, 2:04 pm)30.21 "Hg (Apr 23, 2:04 pm)
Low64 °F (Apr 26, 6:53 am)38% (Apr 25, 3:53 pm)29.70 "Hg (Apr 24, 4:53 pm)
Average76 °F68%30.00 "Hg
* Reported Apr 12 1:53 am — Apr 27 1:53 am, Fort Lauderdale, Weather by CustomWeather, © 2017

Note: Actual official high and low records may vary slightly from our data, if they occured in-between our weather recording intervals... More about our weather records

Advertising

Fort Lauderdale Weather History for the Previous 24 Hours

Scroll right to see more
 ConditionsComfort  
Time TempWeatherWind HumidityBarometerVisibility
1:53 am
Thu, Apr 27
78 °FPassing clouds.9 mph87%29.90 "Hg10 mi
12:53 am78 °FPassing clouds.12 mph84%29.92 "Hg10 mi
11:53 pm
Wed, Apr 26
78 °FPassing clouds.10 mph82%29.93 "Hg10 mi
10:53 pm78 °FPassing clouds.12 mph79%29.92 "Hg10 mi
9:53 pm78 °FPassing clouds.14 mph76%29.91 "Hg10 mi
9:35 pm78 °FPartly cloudy.13 mph79%29.90 "Hg10 mi
9:05 pm79 °FPassing clouds.13 mph77%29.89 "Hg10 mi
8:53 pm78 °FPartly cloudy.14 mph79%29.89 "Hg10 mi
7:53 pm79 °FPartly cloudy.14 mph74%29.87 "Hg10 mi
6:53 pm79 °FScattered clouds.12 mph72%29.86 "Hg10 mi
5:53 pm80 °FPassing clouds.14 mph67%29.85 "Hg10 mi
4:53 pm81 °FPassing clouds.13 mph62%29.86 "Hg10 mi
3:53 pm81 °FScattered clouds.14 mph60%29.87 "Hg10 mi
2:53 pm82 °FScattered clouds.14 mph56%29.89 "Hg10 mi
1:53 pm82 °FPassing clouds.10 mph55%29.90 "Hg10 mi
12:53 pm81 °FScattered clouds.13 mph54%29.91 "Hg10 mi
11:53 am79 °FPassing clouds.9 mph56%29.92 "Hg10 mi
10:53 am79 °FScattered clouds.9 mph54%29.92 "Hg10 mi
9:53 am77 °FPassing clouds.3 mph52%29.92 "Hg10 mi
8:53 am74 °FPassing clouds.No wind64%29.90 "Hg10 mi
7:53 am68 °FPassing clouds.3 mph82%29.90 "Hg10 mi
6:53 am64 °FPassing clouds.5 mph87%29.89 "Hg10 mi
5:53 am66 °FClear.No wind81%29.87 "Hg10 mi
4:53 am66 °FClear.3 mph84%29.87 "Hg10 mi
3:53 am67 °FClear.No wind79%29.87 "Hg10 mi
Weather by CustomWeather, © 2017

See weather overviewHow to use our weather pages